THOR ABLESTAR DEB, 956

Orbit data source: Space-Track

THOR ABLESTAR DEB, 956 is space debris in LEO originally from a launch on Sun, 13 Dec 1964 UTC launched from the Air Force Western Test Range (AFWTR). Debris objects in space refer to the collection of defunct objects orbiting the Earth. Examples of debris include non-operational satellites, rocket bodies, and fragments generated from explosions, collisions, or faulty payload assembly.

Loading next visibility...
Identifier
956, 1964-083B
Orbit
LEO
Country
Flag of USUS
Related business
Manufacturer
Unknown
Mission
Spacecraft
Bus & Motor
Unknown
Mass
Unknown
Launch date (UTC)
1964-12-13 (61 years ago)
Launch vehicle
Unknown
Launch site
Air Force Western Test Range (AFWTR)
Object type
Payload
Rocket body
Debris
Shape & HBR
Unknown shape, 0.1 m
Radar Cross Section
Small (<0.1 m²)

Expand to show TLE details & history
Last TLE update: 7 hours ago

TLE from 7 hours ago
0 THOR ABLESTAR DEB
1   956U 64083B   25295.17321795  .00000439  00000-0  50910-3 0  9993
2   956  89.9340 170.6278 0024326  13.6845 147.0697 13.67401587 23595
Epoch: 2025-10-22T04:09Z
TLE epoch observation values (Epoch: 2025-10-22T04:09:26.030Z)
Latitude
19.09082°
Longitude
-102.60401°
Altitude
1,026.515 km
Speed
7.333 km/s
True Right ascension
23h 22m 25s
True Declination
18° 59' 19"
Sunlit
Object was in full shadow at epoch
Visualization orbit readout
Latitude
Unknown
Longitude
Unknown
Altitude
Unknown
Speed
Unknown
Apparent Right ascension
Unknown
Apparent Declination
Unknown
Sunlit
N/A
Visualization observer readout
Local Sidereal Time
05:48:45
Azimuth
Unknown
Elevation
Unknown
Doppler factor
Unknown
Orbital elements
Apogee altitude
1,023.901 km
Perigee altitude
987.976 km
Semi-major axis
7,384.076 km
Eccentricity
0.00243
Inclination
89.934°
RAAN
170.6278°
Arg. of periapsis
13.6845°
True anomaly
147.22085°
Mean anomaly
147.0697°
Eccentric anomaly
147.14531°
Mean motion
3.42057 °/min
Orbital period
105.25 mins
BSTAR
0.0005091
Loading maneuver chart data...
Computing Atmospheric mass density...

Documentation

Showing up to 5 results
|